[Date Prev][Date Next][Thread Prev][Thread Next] - [Date Index][Thread Index][Author Index]

2 Line ISS Keps 12-21



ISS
1 25544U 98067A   02355.11111111  .00031957  00000-0  42493-3 0  4976
2 25544  51.6333 194.6403 0003630 293.8762 201.4682 15.57882272233265


----
Via the sarex mailing list at AMSAT.ORG courtesy of AMSAT-NA.
To unsubscribe, send "unsubscribe sarex" to Majordomo@amsat.org



AMSAT Top AMSAT Home